Location: Turtle Rock Observatory
(36.6913°N, 81.9708°W)
Time: 06:34:40
(UTC-04:00)

Daily predictions for brighter satellites

Satellite Brightness Start Highest point End
(mag) Time Altitude Azimuth Time Altitude Azimuth Time Altitude Azimuth
Chandra Rocket (1) 4.5 20:35:52 10° WSW 20:41:45 55° S 21:05:36 10° ESE
ERS-1 Rocket 3.7 20:58:40 10° SE 21:03:13 37° ENE 21:07:49 10° N
Envisat 4.5 21:03:32 10° ESE 21:07:16 21° ENE 21:11:02 10° NNE
Cosmos 1110 Rocket 4.2 21:05:19 10° N 21:10:33 58° ENE 21:15:42 10° SSE
USA 186 1.4 21:09:52 10° SSE 21:12:47 88° E 21:15:33 10° N
Meteor 2-4 Rocket 4.0 21:08:41 10° S 21:14:21 57° E 21:20:09 10° NNE
Abrixas rocket 3.7 21:11:45 10° NW 21:14:50 30° NNE 21:17:55 10° E
Cosmos 2333 Rocket 4.0 21:11:07 10° SW 21:16:19 38° WNW 21:21:34 10° N
Meteor 1-19 Rocket 4.2 21:11:06 10° S 21:16:44 82° E 21:22:20 10° N
Okean 2 3.7 21:12:45 10° SSE 21:16:45 47° E 21:20:47 10° NNE
BREEZE M DEB (TANK) 4.0 21:15:39 10° WNW 21:18:43 20° N 21:20:28 10° NE
Cosmos 2297 3.8 21:14:43 10° NNW 21:20:26 70° ENE 21:26:08 10° SSE
FENGYUN 3A 3.8 21:20:40 10° S 21:26:01 77° WSW 21:31:26 10° NNW
Cosmos 1726 Rocket 3.6 21:24:02 10° N 21:28:31 87° E 21:32:55 10° S
H-2A R/B 3.2 21:24:43 10° S 21:28:37 64° W 21:32:33 10° NNW
PSLV R/B 3.3 21:27:58 10° WSW 21:31:28 65° SSE 21:35:00 10° ENE
ISS -2.1 21:28:57 10° S 21:31:33 22° SE 21:34:08 10° ENE
Cosmos 2285 Rocket 4.0 21:29:14 10° NNW 21:35:33 72° ENE 21:41:43 11° SSE
Cosmos 494 Rocket 4.2 21:33:23 10° SSW 21:38:29 74° WNW 21:43:37 10° NNE
CZ-2C R/B 0.7 21:36:30 11° S 21:38:36 63° W 21:40:54 10° NNW
SPOT 5 3.5 21:36:20 15° SE 21:39:26 33° ENE 21:43:20 10° N
Cosmos 1461 4.0 21:35:38 10° N 21:39:29 31° NE 21:42:09 16° ESE
CZ-4 DEB 4.4 21:36:32 10° SSW 21:39:30 34° W 21:42:29 10° NNW
Cosmos 2058 Rocket 3.0 21:37:49 10° N 21:42:13 87° W 21:46:34 10° S
GEOS 3 Rocket 4.1 21:38:46 10° SSE 21:43:57 59° WSW 21:49:08 10° NW
Cosmos 1602 Rocket 3.8 21:41:02 10° SSE 21:45:21 51° E 21:49:42 10° NNE
Cosmos 1464 Rocket 3.9 21:40:16 10° N 21:46:26 81° E 21:52:36 10° S
CZ-4 SHROUD 3.9 21:46:45 22° SE 21:48:15 37° ENE 21:51:12 10° N
ALOS 3.7 21:47:06 10° SSW 21:51:23 36° W 21:55:40 10° NNW
Aureole 2 Rocket 3.1 21:48:33 10° SSW 21:52:33 66° WNW 21:56:12 10° NNE
GRACE-1 4.4 21:51:34 10° NNE 21:54:18 39° E 21:55:07 31° SE
GRACE-2 4.4 21:52:01 10° NNE 21:54:45 40° E 21:55:32 31° SE
deb Chang Zheng 4 4.1 21:50:46 10° N 21:55:07 61° WNW 21:59:25 10° SSW
Cosmos 1812 Rocket 4.2 21:54:17 10° N 21:58:24 39° E 22:00:27 24° SE
Cosmos 2278 Rocket 4.1 21:55:39 10° NW 22:00:13 25° WSW 22:04:46 10° SSW
Terra 4.1 22:01:47 10° ENE 22:02:15 10° ENE 22:02:42 10° ENE
Cosmos 2034 Rocket 4.0 21:58:38 10° N 22:05:02 85° E 22:10:30 14° S
Atlas Centaur 2 3.2 22:01:44 10° WSW 22:08:57 48° SSE 22:15:35 16° E
H-2A R/B 2.8 22:05:22 12° S 22:09:10 50° W 22:13:22 10° NNW
SeaSat 1 2.5 22:07:21 25° SE 22:10:13 68° ENE 22:15:08 10° NNW
ARGOS 4.0 22:10:34 23° ESE 22:13:00 34° ENE 22:17:52 10° N
Cosmos 2369 Rocket 3.5 22:09:21 10° N 22:13:59 25° ENE 22:16:29 19° E
DEBRIS 2.1 22:10:41 10° NW 22:15:05 75° NE 22:15:34 52° ESE
Cosmos 1302 Rocket 4.2 22:10:26 10° NNW 22:15:39 69° WSW 22:19:13 21° S
PSLV R/B 3.1 22:16:10 40° S 22:17:07 78° WSW 22:20:14 10° NNW
Cosmos 1666 3.6 22:13:49 10° NNW 22:17:35 48° W 22:20:22 17° SSW
SL-16 R/B 4.2 22:13:14 10° WSW 22:18:06 29° WNW 22:23:01 10° N
Cosmos 1626 Rocket 3.9 22:14:01 10° SSW 22:18:26 65° W 22:22:50 10° N
CZ-4B R/B 3.5 22:14:06 10° NNE 22:19:11 66° ESE 22:22:53 19° S
Cosmos 1939 Rocket 3.7 22:17:37 17° S 22:20:35 50° W 22:24:38 10° NNW
COSMOS 2455 2.8 22:19:40 10° SSW 22:25:40 84° ESE 22:31:43 10° NNE
Milstar 3 Cent rocket 3.7 22:21:34 10° WSW 22:26:24 20° SSW 22:27:55 18° S
Meteor 2-12 Rocket 4.4 22:23:21 10° N 22:29:27 72° E 22:32:34 30° SSE
MetOp-B 4.1 22:28:01 29° SSE 22:30:51 89° ENE 22:36:15 10° NNW
Cosmos 2228 4.5 22:27:36 10° NNW 22:31:37 35° W 22:35:07 13° SSW
ATLAS 3B R/B 3.0 22:28:23 10° S 22:35:49 54° ESE 22:43:10 10° NE
Cosmos 1953 Rocket 4.0 22:35:33 40° ESE 22:35:50 41° E 22:40:00 10° NNE
Cosmos 2346 Rocket 4.4 22:36:44 30° SSE 22:39:56 67° E 22:46:03 10° NNE
Centaur D AC-28 3.7 22:41:43 10° SW 22:42:46 13° SSW 22:42:46 13° SSW
Cosmos 1515 3.9 22:43:53 43° SSW 22:45:01 70° W 22:48:53 10° N
Envisat 4.0 22:42:41 18° SSW 22:45:59 40° W 22:50:46 10° NNW
Cosmos 1066 Rocket 4.1 22:43:48 34° S 22:46:19 74° E 22:52:05 10° NNE
USA 234 3.3 22:45:57 34° ESE 22:49:04 78° NE 22:55:39 10° NW
Cosmos 407 Rocket 3.6 22:49:26 48° SE 22:50:14 53° ESE 22:55:20 10° NNE
Abrixas rocket 3.6 22:48:50 10° WNW 22:51:25 32° WSW 22:51:25 32° WSW
Cosmos 1346 Rocket 2.8 22:56:00 64° ENE 22:56:00 64° ENE 22:59:32 10° NNE
DELTA 2 DEB (DPAF) 4.1 22:56:14 60° ESE 22:56:42 65° ENE 23:01:09 10° N
SL-23 DEB 4.4 22:50:13 10° SW 22:57:00 60° SE 22:58:26 40° E
Lacrosse 4 Rocket 2.0 22:59:12 42° NE 22:59:12 42° NE 23:02:07 10° NNE
YAOGAN 6 3.4 23:02:20 42° WSW 23:02:40 43° W 23:06:16 10° NNW
USA 81 4.1 23:01:12 10° N 23:06:29 72° W 23:08:02 46° SSW
ISS -1.5 23:04:54 10° W 23:07:51 31° NW 23:10:50 10° NNE
PSLV R/B 4.4 23:05:48 10° W 23:09:14 44° N 23:09:23 44° N
Cosmos 1758 Rocket 3.4 23:10:07 85° E 23:10:07 85° E 23:14:30 10° N
USA 238 DEB 4.3 23:10:57 37° ESE 23:10:57 37° ESE 23:16:59 10° NE
USA 238 4.3 23:11:06 37° ESE 23:11:06 37° ESE 23:17:04 10° NE
Cosmos 1943 3.4 23:07:20 20° SSW 23:11:17 68° WNW 23:16:59 10° NNE
Meteor 1-21 4.2 23:11:19 57° SSE 23:12:25 72° E 23:18:13 10° NNE
CARTOSAT-1 3.8 23:14:29 56° NE 23:14:29 56° NE 23:18:25 10° N
Spot 4 4.1 23:22:16 54° ENE 23:22:16 54° ENE 23:26:47 10° N
Cosmos 1943 Rocket 3.0 23:17:49 10° N 23:22:54 35° ENE 23:23:31 34° ENE
Landsat 7 3.7 23:23:17 77° SW 23:23:29 79° WSW 23:28:15 10° NNW
Spot 2 4.2 23:20:36 10° NNE 23:25:25 81° E 23:25:25 81° E
Cosmos 1992 Rocket 4.5 23:22:26 10° NNW 23:27:28 49° WSW 23:28:11 46° SW
SL-08 RB Rocket 4.3 23:27:20 47° WSW 23:27:38 48° W 23:32:03 10° NNW
H-2A R/B 1.8 23:28:49 84° ESE 23:28:54 85° ENE 23:33:57 10° NNW
Cosmos 1766 4.1 23:31:16 10° N 23:34:21 51° NNW 23:34:21 51° NNW
Terra 1.9 23:39:34 75° WNW 23:39:34 75° WNW 23:44:04 10° NNW
Nadezhda 4 Rocket 3.9 23:45:01 66° ESE 23:45:21 67° E 23:51:38 10° NNE
CZ-4C R/B 4.4 23:54:52 12° ENE 23:54:52 12° ENE 23:55:28 10° ENE
DMSP B5D2-2 4.4 23:47:40 10° N 23:52:51 60° WNW 23:53:27 56° WSW
